Location: Keewatin
(47.4004°N, 93.0827°W)
Time: 04:39:17
(UTC+00:00)

ZACube-1 - Pass Details

Date: 05 March 2020
Orbit: 584 x 667 km, 97.6° (Epoch: 04 April)

Event Time Altitude Azimuth Distance (km) Brightness Sun altitude
Rises 11:46:39 0° 19° (NNE) 3,007 ? -10.5°
Reaches altitude 10° 11:49:01 10° 26° (NNE) 2,081 ? -10.1°
Maximum altitude 11:53:20 41° 97° (E) 943 ? -9.4°
Drops below altitude 10° 11:57:31 10° 168° (SSE) 2,024 ? -8.7°
Sets 11:59:47 0° 176° (S) 2,914 ? -8.3°
